Terug naar catalogus

STARLINK-37592

ActiefCommunicatieSSO
NORAD 69025·PAYLOAD·🇺🇸 United States

Gelanceerd May 6, 2026 vanaf Vandenberg Space Force Base

Loading…

Volgende Passages (komende 24 uur)

TLE

VersSource: CelesTrak SupGP

Epoch: Sep 14, 2026, 22:37 UTC

1 69025C 26101A   26257.94284722  .00085653  00000+0  26593-2 0  2572
2 69025  97.2848 111.4483 0001920  94.2020 258.4078 15.33389481    13

Volg STARLINK-37592 in realtime met AllMySat

Download on the App Store